ATLAS 5 CENTAUR DEB, 43969

Orbit data source: Space-Track

ATLAS 5 CENTAUR DEB, 43969 is space debris in HEO originally from a launch on Wed, 17 Sep 2014 UTC launched from the Air Force Eastern Test Range (AFETR). Debris objects in space refer to the collection of defunct objects orbiting the Earth. Examples of debris include non-operational satellites, rocket bodies, and fragments generated from explosions, collisions, or faulty payload assembly.

Loading next visibility...
Identifier
43969, 2014-055Y
Orbit
HEO
Country
Flag of USUS
Related business
Flag of USUnited Launch Alliance/Lockheed Martin (US)
Manufacturer
Unknown
Mission
Spacecraft
Bus & Motor
Unknown
Mass
Unknown
Launch date (UTC)
2014-09-17 (11 years ago)
Launch vehicle
Unknown
Launch site
Air Force Eastern Test Range (AFETR)
Object type
Payload
Rocket body
Debris
Shape & HBR
Unknown shape, 1.1 m
Radar Cross Section
RCS unknown

Expand to show TLE details & history
Last TLE update: 1 day ago

TLE from 1 day ago
0 ATLAS 5 CENTAUR DEB
1 43969U 14055Y   25286.54131632 -.00000003  00000-0  00000-0 0  9998
2 43969  19.2067 173.8365 5116482 106.5185 313.6669  1.77736136 26984
Epoch: 2025-10-13T12:59Z
TLE epoch observation values (Epoch: 2025-10-13T12:59:29.730Z)
Latitude
-0.00003°
Longitude
-43.32488°
Altitude
18,490.598 km
Speed
4.267 km/s
True Right ascension
11h 35m 33s
True Declination
0° 00' 00"
Sunlit
Object was in daylight at epoch
Visualization orbit readout
Latitude
Unknown
Longitude
Unknown
Altitude
Unknown
Speed
Unknown
Apparent Right ascension
Unknown
Apparent Declination
Unknown
Sunlit
N/A
Visualization observer readout
Local Sidereal Time
08:51:01
Azimuth
Unknown
Elevation
Unknown
Doppler factor
Unknown
Orbital elements
Apogee altitude
37,142.926 km
Perigee altitude
7,681.741 km
Semi-major axis
28,790.471 km
Eccentricity
0.51165
Inclination
19.2067°
RAAN
173.8365°
Arg. of periapsis
106.5185°
True anomaly
253.45872°
Mean anomaly
313.6669°
Eccentric anomaly
285.40483°
Mean motion
0.44429 °/min
Orbital period
810.28 mins
BSTAR
0
Loading maneuver chart data...
Computing Atmospheric mass density...

Documentation

Showing up to 5 results
|